Weather History for KMSP - October, 2012

Change the Weather History Date:

Wednesday, October 10, 2012

  Actual Average Record
Temperature  
Mean Temperature 44 °F 51 °F  
Max Temperature 55 °F 61 °F 90 °F (1928)
Min Temperature 32 °F 42 °F 25 °F (1964)
Degree Days  
Heating Degree Days 21 14  
Month to date heating degree days 152 122  
Since 1 July heating degree days 277 295  
Cooling Degree Days 0 0  
Month to date cooling degree days 0 3  
Year to date cooling degree days 1131 750  
Moisture  
Dew Point 25 °F    
Average Humidity 53    
Maximum Humidity 75    
Minimum Humidity 30    
Precipitation  
Precipitation 0.00 in 0.08 in 1.89 in (1898)
Month to date precipitation 0.03 0.92  
Year to date precipitation 26.05 26.17  
Snow  
Snow 0.00 in 0.00 in 2.50 in (1977)
Month to date snowfall 0.0 0.0  
Since 1 July snowfall T T  
Since 1 September snowfall 0.0 T  
Snow Depth 0.00 in    
Sea Level Pressure  
Sea Level Pressure 30.03 in    
Wind  
Wind Speed 10 mph (WSW)    
Max Wind Speed 20 mph    
Max Gust Speed 30 mph    
Visibility 10 miles    
Events      
T = Trace of Precipitation, MM = Missing Value Source: NWS Daily Summary

Daily Weather History Graph

Daily Weather History Graph

Search for Another Location

Airport or City:

Trip Planner

Search our weather history database for the weather conditions in past years. The results will help you decide how hot, cold, wet, or windy it might be!

Date:

Astronomy

Oct. 10, 2012 Rise Set
Actual Time 7:22 AM CDT 6:36 PM CDT
Civil Twilight 6:53 AM CDT 7:05 PM CDT
Nautical Twilight 6:19 AM CDT 7:39 PM CDT
Astronomical Twilight 5:45 AM CDT 8:13 PM CDT
Moon 1:46 AM CDT (10/10) 3:50 PM CDT (10/10)
Length of Visible Light 12h 11m
Length of Day
11h 13m
Waning Crescent, 27% of the Moon is Illuminated
Oct 10
Waning Crescent
Oct 15
New
Oct 21
First Quarter
Oct 29
Full
Nov 6
Last Quarter

Hourly Weather History & Observations

Time (CDT) Temp. Windchill Dew Point Humidity Pressure Visibility Wind Dir Wind Speed Gust Speed Precip Events Conditions
12:53 AM 37.0 °F 29.3 °F 25.0 °F 62% 30.00 in 10.0 mi West 11.5 mph - N/A   Partly Cloudy
1:53 AM 36.0 °F 28.5 °F 25.0 °F 64% 30.02 in 10.0 mi West 10.4 mph - N/A   Clear
2:53 AM 35.1 °F 27.4 °F 25.0 °F 67% 30.03 in 10.0 mi WNW 10.4 mph - N/A   Mostly Cloudy
3:53 AM 36.0 °F 29.0 °F 25.0 °F 64% 30.03 in 10.0 mi WNW 9.2 mph - N/A   Mostly Cloudy
4:53 AM 34.0 °F 26.0 °F 25.0 °F 70% 30.04 in 10.0 mi West 10.4 mph - N/A   Partly Cloudy
5:53 AM 34.0 °F 28.0 °F 26.1 °F 73% 30.06 in 10.0 mi West 6.9 mph - N/A   Clear
6:53 AM 33.1 °F 27.7 °F 26.1 °F 75% 30.07 in 10.0 mi West 5.8 mph - N/A   Clear
7:53 AM 33.1 °F 26.9 °F 26.1 °F 75% 30.10 in 10.0 mi WNW 6.9 mph - N/A   Clear
8:53 AM 37.0 °F 32.4 °F 27.0 °F 67% 30.12 in 10.0 mi West 5.8 mph - N/A   Partly Cloudy
9:53 AM 41.0 °F 34.7 °F 26.1 °F 55% 30.12 in 10.0 mi WNW 10.4 mph - N/A   Partly Cloudy
10:53 AM 44.1 °F 37.7 °F 24.1 °F 45% 30.12 in 10.0 mi West 12.7 mph - N/A   Scattered Clouds
11:53 AM 46.9 °F - 23.0 °F 39% 30.12 in 10.0 mi West 12.7 mph - N/A   Scattered Clouds
12:53 PM 48.9 °F - 24.1 °F 38% 30.11 in 10.0 mi West 12.7 mph - N/A   Scattered Clouds
1:53 PM 48.0 °F - 24.1 °F 39% 30.09 in 10.0 mi West 13.8 mph - N/A   Mostly Cloudy
2:53 PM 50.0 °F - 23.0 °F 35% 30.06 in 10.0 mi West 16.1 mph 20.7 mph N/A   Mostly Cloudy
3:53 PM 51.1 °F - 21.9 °F 32% 30.04 in 10.0 mi West 13.8 mph 26.5 mph N/A   Mostly Cloudy
4:53 PM 51.1 °F - 21.9 °F 32% 30.03 in 10.0 mi WSW 10.4 mph - N/A   Mostly Cloudy
5:53 PM 50.0 °F - 23.0 °F 35% 30.01 in 10.0 mi SW 4.6 mph - N/A   Overcast
6:53 PM 48.9 °F - 25.0 °F 39% 29.99 in 10.0 mi SE 4.6 mph - N/A   Overcast
7:53 PM 48.9 °F - 25.0 °F 39% 29.98 in 10.0 mi SE 6.9 mph - N/A   Overcast
8:53 PM 48.0 °F - 26.1 °F 42% 29.96 in 10.0 mi ESE 5.8 mph - N/A   Overcast
9:53 PM 50.0 °F - 24.1 °F 36% 29.93 in 10.0 mi SSE 6.9 mph - N/A   Overcast
10:53 PM 50.0 °F - 24.1 °F 36% 29.90 in 10.0 mi SSE 9.2 mph - N/A   Overcast
11:53 PM 53.1 °F - 25.0 °F 34% 29.86 in 10.0 mi South 11.5 mph 20.7 mph N/A   Overcast